This is the latest recevied weather packets stored in our database for station/object WC4PEM-8. If no packets are shown the sender has not sent any weather packets the latest 10 day(s).
| Time | Temp. | Humidity | Pressure | Rain* | Wind** | Luminosity | Snow |
|---|---|---|---|---|---|---|---|
| 1777570088 | 31.67° C | 49% | 1011.8 hPa | 0 mm | - | - | - |
| 1777570068 | 32.22° C | 45% | 1011.6 hPa | 0 mm | - | - | - |
| 1777569972 | 32.22° C | 45% | 1011.6 hPa | 0 mm | - | - | - |
| 1777569804 | 32.22° C | 45% | 1011.8 hPa | 0 mm | - | - | - |
| 1777569672 | 32.22° C | 45% | 1011.8 hPa | 0 mm | - | - | - |
| 1777569372 | 32.22° C | 46% | 1011.7 hPa | 0 mm | - | - | - |
| 1777569169 | 32.22° C | 46% | 1011.8 hPa | 0 mm | - | - | - |
| 1777569072 | 32.22° C | 46% | 1011.8 hPa | 0 mm | - | - | - |
| 1777568772 | 31.67° C | 49% | 1011.8 hPa | 0 mm | - | - | - |
| 1777568602 | 31.11° C | 52% | 1011.7 hPa | 0 mm | - | - | - |
| 1777568472 | 31.11° C | 52% | 1011.7 hPa | 0 mm | - | - | - |
| 1777568258 | 30° C | 51% | 1011.8 hPa | 0 mm | - | - | - |
| 1777568172 | 30.56° C | 52% | 1011.6 hPa | 0 mm | - | - | - |
| 1777567963 | 30.56° C | 52% | 1011.7 hPa | 0 mm | - | - | - |
| 1777567872 | 30.56° C | 52% | 1011.7 hPa | 0 mm | - | - | - |
| 1777567572 | 30° C | 51% | 1011.8 hPa | 0 mm | - | - | - |
| 1777567395 | 30.56° C | 52% | 1011.8 hPa | 0 mm | - | - | - |
| 1777567272 | 30.56° C | 52% | 1011.8 hPa | 0 mm | - | - | - |
| 1777566972 | 30.56° C | 50% | 1011.7 hPa | 0 mm | - | - | - |
| 1777566802 | 30.56° C | 52% | 1011.8 hPa | 0 mm | - | - | - |
| 1777566672 | 30.56° C | 52% | 1011.8 hPa | 0 mm | - | - | - |
| 1777566485 | 30.56° C | 52% | 1012 hPa | 0 mm | - | - | - |
| 1777566372 | 30.56° C | 52% | 1012 hPa | 0 mm | - | - | - |
| 1777566072 | 30.56° C | 54% | 1012.1 hPa | 0 mm | - | - | - |
| 1777565772 | 30° C | 55% | 1012 hPa | 0 mm | - | - | - |
* Rain latest hour (hover to see other rain measurements)
** Current wind speed in m/s (hover to see current wind gust speed)